Location: Saint-Palais-sur-Mer
(45.6429°N, 1.0859°W)
Time: 09:26:40
(UTC+01:00)

SR - All Passes

Search period start: 15 February 2026 00:00
Search period end: 25 February 2026 00:00
Orbit: 574 x 847 km, 66.7° (Epoch: 13 February)

Date Brightness Start Highest point End Pass type
(mag) Time Alt. Az. Time Alt. Az. Time Alt. Az.
15 Feb - 04:57:27 10° SE 04:59:06 12° ESE 05:00:47 10° E visible
15 Feb - 06:35:50 10° SW 06:40:03 74° NW 06:44:28 10° NNE visible
15 Feb - 08:20:19 10° WNW 08:22:34 14° NNW 08:24:53 10° N daylight
15 Feb - 13:30:24 10° NNW 13:34:25 24° NE 13:38:40 10° E daylight
15 Feb - 15:11:30 10° NW 15:16:28 64° WSW 15:21:48 10° SSE daylight
16 Feb - 05:41:10 10° S 05:45:11 46° ESE 05:49:24 10° NE visible
16 Feb - 07:23:35 10° W 07:27:04 24° NW 07:30:43 10° NNE visible
16 Feb - 12:36:12 10° N 12:38:56 15° NE 12:41:46 10° ENE daylight
16 Feb - 14:16:33 10° NNW 14:21:31 64° NE 14:26:50 10° SE daylight
16 Feb - 15:59:04 10° WNW 16:02:50 21° WSW 16:06:46 10° SSW daylight
17 Feb - 04:47:33 10° SSE 04:50:34 19° ESE 04:53:42 10° ENE visible
17 Feb - 06:27:44 10° SW 06:31:50 47° NW 06:36:09 10° NNE visible
17 Feb - 08:13:44 10° NW 08:14:41 11° NNW 08:15:40 10° NNW daylight
17 Feb - 13:21:53 10° NNW 13:26:22 33° NE 13:31:09 10° ESE daylight
17 Feb - 15:03:22 10° NW 15:08:10 43° WSW 15:13:16 10° S daylight
18 Feb - 05:32:38 10° SSW 05:36:51 74° ESE 05:41:16 10° NE visible
18 Feb - 07:16:06 10° W 07:19:04 18° NW 07:22:09 10° N visible
18 Feb - 12:27:28 10° N 12:31:00 19° NE 12:34:42 10° E daylight
18 Feb - 14:08:15 10° NNW 14:13:17 89° WSW 14:18:43 10° SSE daylight
18 Feb - 15:51:47 10° WNW 15:54:22 14° WSW 15:57:01 10° SW daylight
19 Feb - 04:38:25 10° S 04:42:06 30° ESE 04:45:57 10° NE visible
19 Feb - 06:19:49 10° WSW 06:23:41 32° NW 06:27:45 10° NNE visible
19 Feb - 11:33:36 10° N 11:35:24 12° NNE 11:37:13 10° NE daylight
19 Feb - 13:13:26 10° NNW 13:18:14 46° NE 13:23:24 10° SE daylight
19 Feb - 14:55:23 10° NW 14:59:47 30° WSW 15:04:27 10° S daylight
20 Feb - 03:45:43 10° SE 03:47:36 13° ESE 03:49:31 10° E visible
20 Feb - 05:24:20 10° SW 05:28:33 71° NW 05:33:01 10° NNE visible
20 Feb - 07:08:54 10° WNW 07:11:08 14° NNW 07:13:25 10° N visible
20 Feb - 12:18:52 10° NNW 12:23:00 25° NE 12:27:22 10° E daylight
20 Feb - 14:00:01 10° NW 14:05:01 62° WSW 14:10:23 10° SSE daylight
21 Feb - 04:29:38 10° S 04:33:41 48° ESE 04:37:57 10° NE visible
21 Feb - 06:12:07 10° W 06:15:36 23° NW 06:19:16 10° NNE visible
21 Feb - 11:24:37 10° N 11:27:31 15° NE 11:30:30 10° ENE daylight
21 Feb - 13:05:03 10° NNW 13:10:04 66° NE 13:15:27 10° SE daylight
21 Feb - 14:47:38 10° WNW 14:51:22 20° WSW 14:55:16 10° SSW daylight
22 Feb - 03:35:56 10° SSE 03:39:04 20° ESE 03:42:18 10° ENE visible
22 Feb - 05:16:15 10° SW 05:20:20 46° NW 05:24:41 10° NNE visible
22 Feb - 07:02:22 10° NW 07:03:15 10° NNW 07:04:09 10° NNW visible
22 Feb - 12:10:21 10° NNW 12:14:55 34° NE 12:19:48 10° ESE daylight
22 Feb - 13:51:53 10° NW 13:56:42 42° WSW 14:01:48 10° S daylight
23 Feb - 04:21:06 10° SSW 04:25:20 78° ESE 04:29:48 10° NE visible
23 Feb - 06:04:39 10° W 06:07:36 18° NW 06:10:40 10° N visible
23 Feb - 11:15:54 10° N 11:19:34 20° NE 11:23:23 10° E daylight
23 Feb - 12:56:44 10° NNW 13:01:50 87° WSW 13:07:18 10° SSE daylight
23 Feb - 14:40:23 10° WNW 14:42:53 14° WSW 14:45:27 10° SW daylight
24 Feb - 03:26:50 10° S 03:30:35 32° ESE 03:34:30 10° NE visible
24 Feb - 05:08:20 10° WSW 05:12:11 32° NW 05:16:16 10° NNE visible
24 Feb - 10:21:56 10° N 10:23:57 12° NNE 10:26:01 10° NE daylight
24 Feb - 12:01:54 10° NNW 12:06:48 48° NE 12:12:01 10° SE daylight
24 Feb - 13:43:55 10° NW 13:48:19 29° WSW 13:52:57 10° S daylight
